Вернуться в каталог

HELLAS-SAT 1

DFS 3

АктивенСвязьGEO
NORAD 22175·PAYLOAD·🇬🇷 Greece

Запущен Oct 12, 1992 с Cape Canaveral Space Force Station

Loading…

TLE

СвежийSource: Space-Track

Эпоха: Sep 14, 2026, 14:43 UTC

1 22175U 92066A   26257.61323147 -.00000134  00000-0  00000-0 0  9998
2 22175  14.2901   6.3798 0002169 206.7962 174.2329  0.99737569121444

Отслеживайте HELLAS-SAT 1 в реальном времени с AllMySat

Download on the App Store